FW5813 Weather Reports


time (UTC)temp
C
wind
direction
speed
KPH
gust
KPH
rain 1hr
cm
rain 24hr
cm
rain mn
cm
humidity
%
barometer
mb
20260905211610 18 324 4.8 9.7 0.00 0.18 0.18 65 1022.2
20260905210110 18 286 1.6 6.4 0.00 0.18 0.18 65 1021.7
20260905205610 18 15 3.2 8.0 0.00 0.18 0.18 66 1021.8
20260905204611 18 128 3.2 9.7 0.00 0.18 0.18 66 1021.5
20260905203610 18 0 3.2 6.4 0.00 0.18 0.18 66 1021.4
20260905203110 18 3 6.4 6.4 0.00 0.18 0.18 66 1021.5
20260905202609 18 323 1.6 8.0 0.00 0.18 0.18 65 1021.5
20260905201622 19 225 3.2 9.7 0.00 0.18 0.18 64 1021.3
20260905201110 19 236 3.2 9.7 0.00 0.18 0.18 63 1021.4
20260905200610 19 236 3.2 9.7 0.00 0.18 0.18 63 1021.5
20260905200115 19 277 4.8 9.7 0.00 0.18 0.18 62 1021.3
20260905195610 19 267 1.6 8.0 0.00 0.18 0.18 61 1021.4
20260905195110 19 235 6.4 8.0 0.00 0.18 0.18 60 1021.1
20260905194610 19 238 0.0 8.0 0.00 0.18 0.18 59 1021.2
20260905194110 19 214 0.0 8.0 0.00 0.18 0.18 58 1020.9
20260905193609 19 241 4.8 8.0 0.00 0.18 0.18 58 1021.0
20260905193110 19 253 1.6 6.4 0.00 0.18 0.18 57 1021.0
20260905192610 19 233 4.8 6.4 0.00 0.18 0.18 56 1021.0
20260905192112 19 225 1.6 4.8 0.00 0.18 0.18 56 1021.0
20260905191610 20 1 1.6 4.8 0.00 0.18 0.18 56 1020.9
20260905191110 20 242 0.0 4.8 0.00 0.18 0.18 55 1021.0
20260905190610 20 11 3.2 9.7 0.00 0.18 0.18 55 1020.8
20260905190110 20 187 1.6 9.7 0.00 0.18 0.18 54 1020.8
20260905185609 20 317 1.6 4.8 0.00 0.18 0.18 54 1020.6
20260905185110 20 284 4.8 6.4 0.00 0.18 0.18 53 1020.7
20260905184627 20 240 3.2 9.7 0.00 0.18 0.18 53 1020.8
20260905183611 20 212 3.2 6.4 0.00 0.18 0.18 52 1020.5
20260905183111 20 262 3.2 6.4 0.00 0.18 0.18 52 1020.4
20260905182610 20 24 1.6 6.4 0.00 0.18 0.18 52 1020.4
20260905181610 21 187 0.0 8.0 0.00 0.18 0.18 52 1020.1
20260905181110 21 247 1.6 8.0 0.00 0.18 0.18 52 1020.1
20260905180610 21 266 6.4 8.0 0.00 0.18 0.18 51 1020.3
20260905180110 21 235 1.6 6.4 0.00 0.18 0.18 51 1020.0
20260905175612 21 240 3.2 6.4 0.00 0.18 0.18 50 1019.9
20260905175110 21 314 3.2 6.4 0.00 0.18 0.18 50 1019.8
20260905174610 21 285 4.8 6.4 0.00 0.18 0.18 49 1019.7
20260905174110 21 257 3.2 11.3 0.00 0.18 0.18 49 1019.7
20260905173609 22 21 3.2 11.3 0.00 0.18 0.18 48 1019.6
20260905173110 22 301 4.8 11.3 0.00 0.18 0.18 48 1019.6
20260905172610 22 264 4.8 9.7 0.00 0.18 0.18 48 1019.7
20260905172123 22 308 4.8 9.7 0.00 0.18 0.18 48 1019.6
20260905171610 22 262 4.8 8.0 0.00 0.18 0.18 47 1019.6
20260905171110 22 256 4.8 6.4 0.00 0.18 0.18 47 1019.3
20260905170610 22 323 1.6 6.4 0.00 0.18 0.18 47 1019.4
20260905170116 22 263 3.2 6.4 0.00 0.18 0.18 47 1019.5
20260905165622 22 317 1.6 9.7 0.00 0.18 0.18 46 1019.7
20260905165109 23 351 1.6 14.5 0.00 0.18 0.18 46 1019.4
20260905164612 23 288 3.2 14.5 0.00 0.18 0.18 45 1019.5
20260905164110 23 260 6.4 17.7 0.00 0.18 0.18 44 1019.4
20260905163610 23 262 3.2 17.7 0.00 0.18 0.18 43 1019.4
20260905162610 24 23 4.8 14.5 0.00 0.18 0.18 42 1019.3
20260905162109 24 227 8.0 19.3 0.00 0.18 0.18 42 1019.4
20260905161610 24 329 8.0 19.3 0.00 0.18 0.18 42 1019.3
20260905161110 24 271 3.2 19.3 0.00 0.18 0.18 41 1019.0
20260905160610 24 242 8.0 19.3 0.00 0.18 0.18 42 1019.1
20260905155609 25 306 3.2 14.5 0.00 0.18 0.18 42 1019.2
20260905155111 25 226 4.8 14.5 0.00 0.18 0.18 43 1019.3
20260905154610 25 10 3.2 20.9 0.00 0.18 0.18 42 1018.9
20260905154110 25 343 3.2 20.9 0.00 0.18 0.18 43 1019.1
20260905153611 25 218 6.4 24.1 0.00 0.18 0.18 42 1019.2
20260905153110 25 216 0.0 24.1 0.00 0.18 0.18 43 1018.9
20260905152610 25 299 6.4 17.7 0.00 0.18 0.18 42 1018.9
20260905152110 25 348 3.2 17.7 0.00 0.18 0.18 42 1019.1
20260905151610 25 39 4.8 14.5 0.00 0.18 0.18 41 1018.9
20260905151111 25 236 4.8 14.5 0.00 0.18 0.18 41 1019.1
20260905150610 25 331 3.2 22.5 0.00 0.18 0.18 42 1019.1
20260905150111 25 344 6.4 22.5 0.00 0.18 0.18 43 1019.0
20260905145610 25 221 8.0 12.9 0.00 0.18 0.18 42 1018.9
20260905145110 25 260 6.4 16.1 0.00 0.18 0.18 42 1018.9
20260905144610 25 296 9.7 16.1 0.00 0.18 0.18 43 1018.9
20260905143610 25 267 9.7 17.7 0.00 0.18 0.18 42 1018.8
20260905143112 25 280 6.4 20.9 0.00 0.18 0.18 42 1018.7
20260905142610 25 274 11.3 20.9 0.00 0.18 0.18 43 1019.1
20260905142110 25 340 8.0 20.9 0.00 0.18 0.18 43 1018.8
20260905141610 25 229 4.8 20.9 0.00 0.18 0.18 43 1018.7
20260905141122 25 328 6.4 17.7 0.00 0.18 0.18 42 1018.8
20260905140118 25 277 6.4 19.3 0.00 0.18 0.18 41 1018.8
20260905135610 25 250 9.7 27.4 0.00 0.18 0.18 42 1019.0
20260905135110 25 320 6.4 27.4 0.00 0.18 0.18 43 1018.8
20260905134610 25 237 9.7 24.1 0.00 0.18 0.18 42 1018.9
20260905134110 25 316 12.9 24.1 0.00 0.18 0.18 43 1019.1
20260905133611 25 243 9.7 20.9 0.00 0.18 0.18 43 1019.0
20260905132611 25 337 9.7 19.3 0.00 0.18 0.18 43 1019.3
20260905132110 26 315 3.2 19.3 0.00 0.18 0.18 43 1019.4
20260905131610 26 211 4.8 16.1 0.00 0.18 0.18 42 1019.1
20260905131110 25 269 4.8 14.5 0.00 0.18 0.18 44 1019.1
20260905130116 25 266 4.8 14.5 0.00 0.18 0.18 42 1019.3
20260905125611 25 307 6.4 16.1 0.00 0.18 0.18 45 1019.3
20260905125110 25 287 1.6 16.1 0.00 0.18 0.18 45 1019.5
20260905124111 25 280 6.4 17.7 0.00 0.18 0.18 44 1019.5
20260905123610 25 280 4.8 17.7 0.00 0.18 0.18 44 1019.5
20260905123110 25 262 3.2 19.3 0.00 0.18 0.18 44 1019.0
20260905122111 25 293 8.0 17.7 0.00 0.18 0.18 44 1019.4
20260905121610 26 337 14.5 17.7 0.00 0.18 0.18 42 1019.3
20260905120611 25 269 9.7 19.3 0.00 0.18 0.18 44 1019.4
20260905120115 26 299 8.0 19.3 0.00 0.18 0.18 45 1019.2
20260905115610 25 359 4.8 17.7 0.00 0.18 0.18 46 1019.3
20260905115110 25 3 12.9 20.9 0.00 0.18 0.18 47 1019.4
20260905114612 25 241 4.8 20.9 0.00 0.18 0.18 47 1019.4
20260905114111 25 287 9.7 19.3 0.00 0.18 0.18 46 1019.3
20260905113610 25 260 0.0 20.9 0.00 0.18 0.18 49 1019.5
20260905113110 24 288 8.0 20.9 0.00 0.18 0.18 50 1019.3
20260905112610 25 316 11.3 16.1 0.00 0.18 0.18 49 1019.4
20260905111609 23 293 6.4 12.9 0.00 0.18 0.18 53 1019.6
20260905111110 24 7 9.7 11.3 0.00 0.18 0.18 56 1019.6
20260905110610 23 229 0.0 11.3 0.00 0.18 0.18 58 1019.6
20260905110118 24 37 3.2 11.3 0.00 0.18 0.18 57 1019.5
20260905105610 24 262 4.8 14.5 0.00 0.18 0.18 59 1019.5
20260905104622 23 205 4.8 14.5 0.00 0.18 0.18 66 1019.7
20260905104112 23 291 3.2 14.5 0.00 0.18 0.18 66 1019.7
20260905103110 22 67 3.2 19.3 0.00 0.18 0.18 72 1019.6
20260905102110 22 244 9.7 16.1 0.00 0.18 0.18 68 1019.8
20260905101611 22 207 6.4 19.3 0.00 0.18 0.18 69 1020.1
20260905101110 22 194 4.8 19.3 0.00 0.18 0.18 71 1019.7
20260905100610 21 188 4.8 17.7 0.00 0.18 0.18 72 1019.9
20260905100112 21 321 6.4 22.5 0.00 0.18 0.18 74 1019.8
20260905095610 20 254 12.9 22.5 0.00 0.18 0.18 75 1020.0
20260905094610 20 253 3.2 20.9 0.00 0.18 0.18 77 1020.1
20260905094111 19 222 4.8 24.1 0.00 0.18 0.18 80 1020.1
20260905093111 18 19 1.6 16.1 0.00 0.18 0.18 82 1020.0
20260905092610 18 232 3.2 16.1 0.00 0.18 0.18 83 1020.1
20260905092110 17 231 4.8 22.5 0.00 0.18 0.18 84 1020.2
20260905091110 17 224 3.2 20.9 0.03 0.18 0.18 87 1020.2
20260905090610 17 223 9.7 17.7 0.03 0.18 0.18 87 1019.9
20260905090115 16 236 9.7 16.1 0.03 0.18 0.18 88 1020.2
20260905085110 16 230 12.9 19.3 0.03 0.18 0.18 89 1020.2
20260905084110 16 208 3.2 24.1 0.03 0.18 0.18 91 1019.9
20260905083611 15 242 17.7 24.1 0.03 0.18 0.18 91 1020.0
20260905082610 15 241 12.9 27.4 0.05 0.18 0.18 92 1020.1
20260905082123 15 204 6.4 20.9 0.05 0.18 0.18 91 1020.1
20260905081110 15 242 9.7 32.2 0.03 0.15 0.15 90 1019.9
20260905080611 15 236 8.0 32.2 0.03 0.15 0.15 90 1019.7
20260905075610 15 198 4.8 25.7 0.03 0.15 0.15 89 1019.7
20260905075111 15 248 14.5 24.1 0.03 0.15 0.15 89 1019.6
20260905074610 16 295 3.2 16.1 0.03 0.15 0.15 91 1019.6
20260905074110 15 241 9.7 12.9 0.03 0.15 0.15 90 1019.5
20260905073610 16 230 6.4 14.5 0.03 0.15 0.15 89 1019.7
20260905072611 16 232 3.2 9.7 0.03 0.13 0.13 84 1019.9
20260905071611 16 180 3.2 6.4 0.03 0.13 0.13 82 1020.0
20260905071110 16 222 1.6 4.8 0.03 0.13 0.13 83 1020.0
20260905070611 16 0 1.6 9.7 0.03 0.13 0.13 83 1019.8
20260905065110 16 110 3.2 11.3 0.03 0.13 0.13 83 1019.5
20260905064111 16 70 1.6 12.9 0.03 0.13 0.13 82 1019.2
20260905063610 16 8 6.4 12.9 0.03 0.13 0.13 82 1019.7
20260905063110 16 344 3.2 6.4 0.05 0.10 0.10 84 1019.8
20260905062610 16 213 3.2 6.4 0.08 0.10 0.10 86 1020.3
20260905062110 16 304 0.0 4.8 0.10 0.10 0.10 88 1019.5
20260905061611 16 24 3.2 4.8 0.10 0.10 0.10 87 1019.1
20260905061110 15 4 1.6 3.2 0.10 0.10 0.10 86 1019.2
20260905060610 16 269 0.0 3.2 0.10 0.10 0.10 86 1019.1
20260905060117 16 22 1.6 3.2 0.10 0.10 0.10 85 1019.0
20260905055610 16 79 3.2 6.4 0.10 0.10 0.10 83 1019.2
20260905055111 16 80 0.0 8.0 0.10 0.10 0.10 83 1019.2
20260905054610 16 33 0.0 9.7 0.10 0.10 0.10 82 1019.5
20260905054110 16 4 4.8 9.7 0.10 0.10 0.10 81 1019.0
20260905053611 16 29 4.8 9.7 0.10 0.10 0.10 79 1019.4
20260905053110 17 60 1.6 12.9 0.05 0.05 0.08 76 1019.4
20260905052610 17 1 4.8 12.9 0.03 0.03 0.03 71 1019.4
20260905052110 18 338 4.8 12.9 0.00 0.00 0.00 66 1019.3
20260905051610 18 23 4.8 9.7 0.00 0.00 0.00 60 1018.7
20260905051110 18 7 6.4 9.7 0.00 0.00 0.00 60 1018.4
20260905050610 18 4 3.2 14.5 0.00 0.00 0.00 60 1018.1
20260905050110 18 4 4.8 17.7 0.00 0.00 0.00 59 1017.7
20260905045111 19 351 9.7 20.9 0.00 0.00 0.00 56 1018.1
20260905044610 19 0 9.7 20.9 0.00 0.00 0.00 56 1017.9
20260905044111 19 0 4.8 11.3 0.00 0.00 0.00 55 1017.7
20260905043610 19 341 3.2 14.5 0.00 0.00 0.00 55 1017.7
20260905043110 19 15 3.2 17.7 0.00 0.00 0.00 55 1017.6
20260905042110 19 15 4.8 25.7 0.00 0.00 0.00 53 1017.4
20260905041610 20 359 6.4 25.7 0.00 0.00 0.00 53 1017.1
20260905041110 20 13 6.4 25.7 0.00 0.00 0.00 55 1017.2
20260905040611 19 12 11.3 14.5 0.00 0.00 0.00 57 1017.3
20260905040118 19 357 6.4 17.7 0.00 0.00 0.00 57 1016.9
20260905035610 19 3 1.6 17.7 0.00 0.00 0.00 59 1016.8
20260905035110 19 357 3.2 11.3 0.00 0.00 0.00 58 1016.7
20260905034611 19 321 4.8 11.3 0.00 0.00 0.00 59 1016.7
20260905034110 19 52 3.2 14.5 0.00 0.00 0.00 60 1016.5
20260905033110 20 10 4.8 17.7 0.00 0.00 0.00 60 1016.6
20260905032615 20 2 4.8 17.7 0.00 0.00 0.00 60 1016.6
20260905032110 20 331 9.7 16.1 0.00 0.00 0.00 60 1016.7
20260905031110 20 345 4.8 17.7 0.00 0.00 0.00 60 1016.0
20260905030123 20 335 6.4 17.7 0.00 0.00 0.00 59 1015.6
20260905025623 20 351 6.4 22.5 0.00 0.00 0.00 59 1015.4
20260905025111 20 8 11.3 22.5 0.00 0.00 0.00 58 1015.3
20260905024610 20 353 4.8 24.1 0.00 0.00 0.00 59 1015.3
20260905024110 20 354 11.3 24.1 0.00 0.00 0.00 59 1015.3
20260905023111 21 21 8.0 22.5 0.00 0.00 0.00 62 1015.1
20260905022610 21 358 12.9 29.0 0.00 0.00 0.00 62 1014.9
20260905022110 21 13 9.7 29.0 0.00 0.00 0.00 62 1014.6
20260905020610 23 357 12.9 38.6 0.00 0.00 0.00 59 1014.2
20260905015610 25 198 1.6 8.0 0.00 0.00 0.00 52 1013.0
20260905015111 25 341 3.2 9.7 0.00 0.00 0.00 54 1013.1
20260905014610 25 255 0.0 9.7 0.00 0.00 0.00 51 1012.9
20260905014109 25 245 3.2 8.0 0.00 0.00 0.00 50 1013.2
20260905013610 25 221 1.6 8.0 0.00 0.00 0.00 49 1013.0
20260905013111 25 321 3.2 6.4 0.00 0.00 0.00 49 1013.1
20260905012610 25 264 1.6 6.4 0.00 0.00 0.00 49 1012.7
20260905012110 25 285 3.2 6.4 0.00 0.00 0.00 49 1012.7
20260905011110 25 289 1.6 8.0 0.00 0.00 0.00 48 1012.8
20260905010116 25 236 3.2 8.0 0.00 0.00 0.00 48 1012.9
20260905005110 25 257 3.2 6.4 0.00 0.00 0.00 47 1012.4
20260905004610 26 227 1.6 6.4 0.00 0.00 0.00 47 1012.8
20260905003610 26 239 1.6 9.7 0.00 0.00 0.00 46 1012.7
20260905003110 26 225 1.6 9.7 0.00 0.00 0.00 46 1012.5
20260905002610 26 212 3.2 8.0 0.00 0.00 0.00 46 1012.5
20260905002110 26 241 4.8 8.0 0.00 0.00 0.00 46 1012.8
20260905001610 25 229 4.8 8.0 0.00 0.00 0.00 46 1012.8
20260905001110 25 273 1.6 6.4 0.00 0.00 0.00 47 1012.5
20260905000115 26 278 3.2 8.0 0.00 0.00 0.00 46 1012.6
20260904235110 26 279 3.2 11.3 0.00 0.00 0.00 46 1012.3
20260904234611 26 247 4.8 8.0 0.00 0.00 0.00 45 1012.5
20260904234110 26 258 3.2 8.0 0.00 0.00 0.00 45 1012.6
20260904233610 26 341 3.2 12.9 0.00 0.00 0.00 45 1012.4
20260904233109 26 346 4.8 12.9 0.00 0.00 0.00 45 1012.3
20260904232610 26 273 1.6 9.7 0.00 0.00 0.00 45 1012.4
20260904232110 26 216 3.2 9.7 0.00 0.00 0.00 45 1012.3
20260904231610 26 232 4.8 12.9 0.00 0.00 0.00 45 1012.2
20260904231110 26 236 3.2 12.9 0.00 0.00 0.00 45 1012.2
20260904230610 26 244 8.0 11.3 0.00 0.00 0.00 45 1012.1
20260904230115 26 239 6.4 12.9 0.00 0.00 0.00 45 1012.2
20260904225610 26 266 3.2 12.9 0.00 0.00 0.00 45 1012.0
20260904225110 25 283 1.6 16.1 0.00 0.00 0.00 46 1012.0
20260904224611 26 253 3.2 16.1 0.00 0.00 0.00 45 1012.0
20260904223610 25 241 4.8 14.5 0.00 0.00 0.00 46 1011.8
20260904223109 25 229 6.4 14.5 0.00 0.00 0.00 46 1011.9
20260904221110 25 205 6.4 11.3 0.00 0.00 0.00 47 1011.8
20260904220610 25 220 8.0 11.3 0.00 0.00 0.00 47 1011.7
20260904220116 24 244 6.4 11.3 0.00 0.00 0.00 47 1012.0
20260904215611 24 218 3.2 9.7 0.00 0.00 0.00 48 1011.7
20260904214611 23 242 4.8 8.0 0.00 0.00 0.00 49 1011.9
20260904214110 23 237 6.4 8.0 0.00 0.00 0.00 49 1012.0
20260904213111 23 232 1.6 8.0 0.00 0.00 0.00 50 1012.0
20260904212610 23 224 1.6 8.0 0.00 0.00 0.00 51 1011.9